Fort Campbell, KY

2:04 PM CDT on August 26, 2016 (GMT -0500)
Campbell Army Air Field

Weather History for KHOP - March, 2013

Change the Weather History Date:

Friday, March 1, 2013

  Actual Average Record
Temperature  
Mean Temperature 35 °F -  
Max Temperature 39 °F 51 °F 73 °F (1997)
Min Temperature 31 °F 32 °F 21 °F (2005)
Degree Days  
Heating Degree Days 30    
Moisture  
Dew Point 33 °F    
Average Humidity 99    
Maximum Humidity 100    
Minimum Humidity 81    
Precipitation  
Precipitation 0.05 in - - ()
Sea Level Pressure  
Sea Level Pressure 30.07 in    
Wind  
Wind Speed 7 mph (NW)    
Max Wind Speed 13 mph    
Max Gust Speed 17 mph    
Visibility 8 miles    
Events Rain , Snow    
Averages and records for this station are not official NWS values.
T = Trace of Precipitation, MM = Missing Value Source: NWS Daily Summary

Daily Weather History Graph

Daily Weather History Graph

Search for Another Location

Airport or City:

Trip Planner

Search our weather history database for the weather conditions in past years. The results will help you decide how hot, cold, wet, or windy it might be!

Date:

Astronomy

Mar. 01, 2013 Rise Set
Actual Time 6:20 AM CST 5:44 PM CST
Civil Twilight 5:54 AM CST 6:10 PM CST
Nautical Twilight 5:24 AM CST 6:40 PM CST
Astronomical Twilight 4:54 AM CST 7:10 PM CST
Moon 10:08 PM CST (3/1) 8:14 AM CST (3/1)
Length of Visible Light 12h 16m
Length of Day
11h 24m
Waning Gibbous, 83% of the Moon is Illuminated
Mar 1
Waning Gibbous
Mar 4
Last Quarter
Mar 11
New
Mar 19
First Quarter
Mar 27
Full

Hourly Weather History & Observations

Time (CST) Temp. Windchill Dew Point Humidity Pressure Visibility Wind Dir Wind Speed Gust Speed Precip Events Conditions
12:04 AM 33.8 °F 28.6 °F 33.8 °F 100% 30.05 in 10.0 mi WNW 5.8 mph - N/A Snow Light Snow
12:32 AM 33.8 °F 27.7 °F 33.8 °F 100% 30.05 in 10.0 mi NW 6.9 mph - N/A   Overcast
12:58 AM 33.8 °F 27.7 °F 33.8 °F 100% 30.05 in 10.0 mi WNW 6.9 mph - N/A   Overcast
1:19 AM 33.8 °F 27.7 °F 33.8 °F 100% 30.05 in 10.0 mi WNW 6.9 mph - N/A Snow Light Snow
1:23 AM 33.8 °F 28.6 °F 33.8 °F 100% 30.05 in 10.0 mi NW 5.8 mph - N/A Snow Light Snow
1:39 AM 33.8 °F 27.0 °F 33.8 °F 100% 30.04 in 7.0 mi WNW 8.1 mph - N/A Snow Light Snow
1:55 AM 33.1 °F 26.1 °F 32.9 °F 99% 30.04 in 4.0 mi WNW 8.1 mph - 0.00 in Snow Light Snow
2:09 AM 32.0 °F 25.6 °F 32.0 °F 100% 30.04 in 3.0 mi WNW 6.9 mph - N/A Snow Light Snow
2:15 AM 32.0 °F 26.4 °F 32.0 °F 100% 30.04 in 2.5 mi WNW 5.8 mph - N/A Snow Light Snow
2:22 AM 32.0 °F 25.6 °F 32.0 °F 100% 30.04 in 3.0 mi WNW 6.9 mph - N/A Snow Light Snow
2:31 AM 32.0 °F 25.6 °F 32.0 °F 100% 30.04 in 3.0 mi WNW 6.9 mph - N/A Snow Light Snow
2:35 AM 32.0 °F 24.8 °F 32.0 °F 100% 30.04 in 3.0 mi WNW 8.1 mph - N/A Snow Light Snow
2:55 AM 32.5 °F 27.1 °F 32.5 °F 100% 30.04 in 4.0 mi WNW 5.8 mph - 0.00 in Snow Light Snow
3:05 AM 32.0 °F 25.6 °F 32.0 °F 100% 30.05 in 5.0 mi WNW 6.9 mph - N/A Snow Light Snow
3:40 AM 32.0 °F 26.4 °F 32.0 °F 100% 30.05 in 5.0 mi WNW 5.8 mph - N/A Snow Light Snow
3:55 AM 32.4 °F 26.9 °F 32.4 °F 100% 30.04 in 4.0 mi WNW 5.8 mph - 0.00 in Snow Light Snow
3:58 AM 32.0 °F 26.4 °F 32.0 °F 100% 30.04 in 4.0 mi West 5.8 mph - N/A Snow Light Snow
4:24 AM 32.0 °F 26.4 °F 32.0 °F 100% 30.04 in 4.0 mi West 5.8 mph - N/A Snow Light Snow
4:27 AM 32.0 °F 26.4 °F 32.0 °F 100% 30.04 in 5.0 mi WNW 5.8 mph - N/A Snow Light Snow
4:38 AM 32.0 °F 26.4 °F 32.0 °F 100% 30.04 in 5.0 mi WNW 5.8 mph - N/A Snow Light Snow
4:48 AM 32.0 °F 26.4 °F 32.0 °F 100% 30.04 in 5.0 mi WNW 5.8 mph - N/A Snow Light Snow
4:55 AM 32.4 °F 26.9 °F 32.4 °F 100% 30.04 in 6.0 mi WNW 5.8 mph - 0.01 in Snow Light Snow
4:59 AM 32.0 °F 25.6 °F 32.0 °F 100% 30.04 in 6.0 mi WNW 6.9 mph - N/A Snow Light Snow
5:14 AM 32.0 °F 26.4 °F 32.0 °F 100% 30.04 in 6.0 mi West 5.8 mph - N/A Snow Light Snow
5:20 AM 32.0 °F 26.4 °F 32.0 °F 100% 30.04 in 6.0 mi WNW 5.8 mph - N/A Snow Light Snow
5:28 AM 32.0 °F 26.4 °F 32.0 °F 100% 30.04 in 6.0 mi West 5.8 mph - N/A Snow Light Snow
5:46 AM 32.0 °F 26.4 °F 32.0 °F 100% 30.05 in 6.0 mi West 5.8 mph - N/A Snow Light Snow
5:48 AM 32.0 °F 26.4 °F 32.0 °F 100% 30.05 in 6.0 mi WNW 5.8 mph - N/A Snow Light Snow
5:55 AM 32.4 °F 26.9 °F 32.4 °F 100% 30.05 in 7.0 mi WNW 5.8 mph - 0.00 in Snow Light Snow
6:03 AM 32.0 °F 26.4 °F 32.0 °F 100% 30.05 in 8.0 mi WNW 5.8 mph - N/A Snow Light Snow
6:14 AM 32.0 °F 26.4 °F 32.0 °F 100% 30.05 in 10.0 mi NW 5.8 mph - N/A   Overcast
6:42 AM 32.0 °F 26.4 °F 32.0 °F 100% 30.05 in 10.0 mi WNW 5.8 mph - N/A   Overcast
6:44 AM 32.0 °F 25.6 °F 32.0 °F 100% 30.05 in 9.0 mi WNW 6.9 mph - N/A Snow Light Snow
6:55 AM 32.4 °F 26.0 °F 32.2 °F 99% 30.06 in 9.0 mi WNW 6.9 mph - 0.00 in Snow Light Snow
7:12 AM 32.0 °F 26.4 °F 32.0 °F 100% 30.06 in 8.0 mi WNW 5.8 mph - N/A Snow Light Snow
7:36 AM 32.0 °F 26.4 °F 32.0 °F 100% 30.07 in 4.0 mi WNW 5.8 mph - N/A Snow Light Snow
7:39 AM 32.0 °F 27.5 °F 32.0 °F 100% 30.07 in 4.0 mi WNW 4.6 mph - N/A Snow Light Snow
7:42 AM 32.0 °F 25.6 °F 32.0 °F 100% 30.07 in 4.0 mi WNW 6.9 mph - N/A Snow Light Snow
7:55 AM 32.7 °F 27.3 °F 32.7 °F 100% 30.07 in 4.0 mi West 5.8 mph - 0.00 in Snow Light Snow
7:59 AM 33.8 °F 27.7 °F 33.8 °F 100% 30.07 in 4.0 mi WNW 6.9 mph - N/A Snow Light Snow
8:06 AM 33.8 °F 27.7 °F 33.8 °F 100% 30.08 in 4.0 mi WNW 6.9 mph - N/A Snow Light Snow
8:41 AM 33.8 °F 27.0 °F 33.8 °F 100% 30.08 in 5.0 mi WNW 8.1 mph - N/A Snow Light Snow
8:49 AM 33.8 °F 27.7 °F 33.8 °F 100% 30.08 in 6.0 mi WNW 6.9 mph - N/A Snow Light Snow
8:55 AM 33.6 °F 27.5 °F 33.6 °F 100% 30.08 in 6.0 mi WNW 6.9 mph - 0.00 in Snow Light Snow
9:10 AM 33.8 °F 27.0 °F 33.8 °F 100% 30.08 in 8.0 mi NW 8.1 mph - N/A Snow Light Snow
9:12 AM 33.8 °F 27.7 °F 33.8 °F 100% 30.08 in 7.0 mi WNW 6.9 mph - N/A Snow Light Snow
9:30 AM 33.8 °F 29.6 °F 33.8 °F 100% 30.08 in 6.0 mi WNW 4.6 mph - N/A Snow Light Snow
9:41 AM 33.8 °F 26.4 °F 33.8 °F 100% 30.08 in 9.0 mi NW 9.2 mph - N/A Snow Light Snow
9:55 AM 34.3 °F 27.7 °F 34.2 °F 99% 30.08 in 8.0 mi NW 8.1 mph - 0.00 in Snow Light Snow
10:16 AM 33.8 °F 27.0 °F 33.8 °F 100% 30.08 in 8.0 mi NW 8.1 mph - N/A Snow Light Snow
10:19 AM 35.6 °F 29.9 °F 33.8 °F 93% 30.08 in 9.0 mi NW 6.9 mph - N/A Snow Light Snow
10:30 AM 35.6 °F 29.9 °F 35.6 °F 100% 30.08 in 10.0 mi WNW 6.9 mph - N/A   Light Drizzle
10:38 AM 35.6 °F 29.2 °F 35.6 °F 100% 30.08 in 10.0 mi NW 8.1 mph - N/A   Light Drizzle
10:40 AM 35.6 °F 29.9 °F 35.6 °F 100% 30.08 in 10.0 mi NW 6.9 mph - N/A   Light Drizzle
10:53 AM 35.6 °F 29.2 °F 35.6 °F 100% 30.08 in 10.0 mi WNW 8.1 mph - N/A   Overcast
10:54 AM 35.6 °F 29.9 °F 35.6 °F 100% 30.08 in 10.0 mi WNW 6.9 mph - N/A   Light Drizzle
10:55 AM 35.6 °F 29.9 °F 35.2 °F 99% 30.08 in 10.0 mi WNW 6.9 mph - 0.00 in   Light Drizzle
10:57 AM 35.6 °F 29.9 °F 35.6 °F 100% 30.08 in 10.0 mi WNW 6.9 mph - N/A   Light Drizzle
11:04 AM 35.6 °F 29.9 °F 35.6 °F 100% 30.08 in 10.0 mi West 6.9 mph - N/A   Light Drizzle
11:13 AM 35.6 °F 29.9 °F 35.6 °F 100% 30.08 in 10.0 mi NW 6.9 mph - N/A   Overcast
11:15 AM 35.6 °F 29.9 °F 35.6 °F 100% 30.08 in 10.0 mi NW 6.9 mph - N/A   Light Drizzle
11:40 AM 37.4 °F 31.4 °F 35.6 °F 93% 30.08 in 10.0 mi WNW 8.1 mph - N/A   Light Drizzle
11:50 AM 37.4 °F 30.8 °F 35.6 °F 93% 30.07 in 10.0 mi WNW 9.2 mph - N/A   Light Drizzle
11:55 AM 37.6 °F 31.0 °F 36.0 °F 94% 30.07 in 10.0 mi WNW 9.2 mph - 0.00 in   Light Drizzle
11:57 AM 37.4 °F 30.8 °F 35.6 °F 93% 30.07 in 8.0 mi NW 9.2 mph - N/A   Light Drizzle
12:03 PM 35.6 °F 29.9 °F 35.6 °F 100% 30.07 in 6.0 mi WNW 6.9 mph - N/A Snow Light Snow
12:15 PM 37.4 °F 31.4 °F 35.6 °F 93% 30.06 in 10.0 mi NW 8.1 mph - N/A   Light Drizzle
12:17 PM 37.4 °F 31.4 °F 35.6 °F 93% 30.06 in 10.0 mi NW 8.1 mph - N/A   Overcast
12:29 PM 37.4 °F 29.8 °F 35.6 °F 93% 30.06 in 10.0 mi WNW 11.5 mph - N/A   Light Drizzle
12:30 PM 37.4 °F 29.8 °F 35.6 °F 93% 30.06 in 10.0 mi WNW 11.5 mph - N/A   Overcast
12:31 PM 37.4 °F 29.8 °F 35.6 °F 93% 30.06 in 10.0 mi WNW 11.5 mph - N/A   Light Drizzle
12:50 PM 37.4 °F 32.1 °F 35.6 °F 93% 30.06 in 10.0 mi West 6.9 mph - N/A   Light Drizzle
12:53 PM 37.4 °F 32.8 °F 35.6 °F 93% 30.05 in 10.0 mi West 5.8 mph - N/A   Light Drizzle
12:55 PM 37.0 °F 31.6 °F 35.8 °F 95% 30.05 in 10.0 mi West 6.9 mph - 0.00 in   Light Drizzle
1:01 PM 37.4 °F 32.8 °F 35.6 °F 93% 30.05 in 9.0 mi NNW 5.8 mph - N/A   Light Ice Pellets
1:11 PM 35.6 °F 29.2 °F 35.6 °F 100% 30.04 in 3.0 mi WNW 8.1 mph - N/A Snow Snow Grains
1:22 PM 37.4 °F 31.4 °F 37.4 °F 100% 30.04 in 10.0 mi West 8.1 mph - N/A   Overcast
1:50 PM 39.2 °F 34.2 °F 33.8 °F 81% 30.04 in 10.0 mi West 6.9 mph - N/A   Overcast
1:55 PM 38.8 °F 31.2 °F 34.2 °F 83% 30.04 in 4.0 mi West 12.7 mph - 0.01 in   Unknown
2:17 PM 37.4 °F 32.1 °F 35.6 °F 93% 30.04 in 10.0 mi WNW 6.9 mph - N/A   Mostly Cloudy
2:36 PM 37.4 °F 30.3 °F 35.6 °F 93% 30.04 in 10.0 mi NNW 10.4 mph - N/A Rain , Snow Light Rain
3:07 PM 35.6 °F 29.9 °F 35.6 °F 100% 30.04 in 4.0 mi NW 6.9 mph 17.3 mph N/A Snow Light Snow
4:04 PM 35.6 °F 32.8 °F 35.6 °F 100% 30.05 in 10.0 mi Variable 3.5 mph - N/A   Mostly Cloudy
4:26 PM 35.6 °F 29.2 °F 33.8 °F 93% 30.06 in 5.0 mi NW 8.1 mph 17.3 mph N/A Snow Light Snow
5:33 PM 35.6 °F 29.9 °F 35.6 °F 100% 30.06 in 4.0 mi West 6.9 mph - N/A Snow Light Snow
5:55 PM 33.4 °F 27.3 °F 33.4 °F 100% 30.07 in 3.0 mi NW 6.9 mph - 0.01 in Snow Light Snow
6:55 PM 33.1 °F - 33.1 °F 100% 30.08 in 5.0 mi North - - 0.01 in Snow Light Snow
7:12 PM 33.1 °F 27.7 °F 33.1 °F 100% 30.08 in 5.0 mi NNW 5.8 mph - 0.01 in Snow Light Snow
7:55 PM 33.1 °F 27.7 °F 33.1 °F 100% 30.09 in 6.0 mi NNW 5.8 mph - 0.00 in Snow Light Snow
8:18 PM 33.8 °F 29.6 °F 33.8 °F 100% 30.09 in 10.0 mi NW 4.6 mph - N/A Rain Light Rain
8:27 PM 33.8 °F 29.6 °F 33.8 °F 100% 30.09 in 10.0 mi NW 4.6 mph - N/A   Light Drizzle
8:29 PM 33.8 °F 29.6 °F 33.8 °F 100% 30.09 in 10.0 mi NW 4.6 mph - N/A   Light Drizzle
8:39 PM 33.8 °F 29.6 °F 33.8 °F 100% 30.10 in 9.0 mi WNW 4.6 mph - N/A Snow Light Snow
8:55 PM 33.1 °F 27.7 °F 33.1 °F 100% 30.10 in 9.0 mi WNW 5.8 mph - 0.00 in Snow Light Snow
9:02 PM 33.8 °F 27.7 °F 33.8 °F 100% 30.10 in 8.0 mi NW 6.9 mph - N/A Snow Light Snow
9:06 PM 33.8 °F 27.7 °F 33.8 °F 100% 30.10 in 7.0 mi NW 6.9 mph - N/A Snow Light Snow
9:07 PM 33.8 °F 27.7 °F 33.8 °F 100% 30.10 in 6.0 mi NW 6.9 mph - N/A Snow Light Snow
9:10 PM 33.8 °F 28.6 °F 33.8 °F 100% 30.10 in 6.0 mi NW 5.8 mph - N/A Snow Light Snow
9:15 PM 33.8 °F 28.6 °F 33.8 °F 100% 30.10 in 8.0 mi WNW 5.8 mph - N/A Snow Light Snow
9:19 PM 33.8 °F 28.6 °F 33.8 °F 100% 30.10 in 10.0 mi NW 5.8 mph - N/A Snow Light Snow
9:26 PM 33.8 °F 27.7 °F 33.8 °F 100% 30.10 in 10.0 mi NW 6.9 mph - N/A Snow Light Snow
9:35 PM 32.0 °F 27.5 °F 32.0 °F 100% 30.10 in 9.0 mi NNW 4.6 mph - N/A Snow Light Snow
9:38 PM 32.0 °F 26.4 °F 32.0 °F 100% 30.10 in 9.0 mi NW 5.8 mph - N/A Snow Light Snow
9:45 PM 32.0 °F 27.5 °F 32.0 °F 100% 30.10 in 10.0 mi NW 4.6 mph - N/A Snow Light Snow
9:51 PM 32.0 °F 26.4 °F 32.0 °F 100% 30.10 in 8.0 mi NW 5.8 mph - N/A Snow Light Snow
9:53 PM 32.0 °F 27.5 °F 32.0 °F 100% 30.10 in 7.0 mi NW 4.6 mph - N/A Snow Light Snow
9:54 PM 32.0 °F 27.5 °F 32.0 °F 100% 30.10 in 7.0 mi NNW 4.6 mph - N/A Snow Light Snow
9:55 PM 32.7 °F 26.4 °F 32.7 °F 100% 30.10 in 7.0 mi NNW 6.9 mph - 0.01 in Snow Light Snow
10:01 PM 32.0 °F 24.2 °F 32.0 °F 100% 30.10 in 7.0 mi NNW 9.2 mph - N/A Snow Light Snow
10:08 PM 32.0 °F 25.6 °F 32.0 °F 100% 30.10 in 8.0 mi NNW 6.9 mph - N/A Snow Light Snow
10:09 PM 32.0 °F 25.6 °F 32.0 °F 100% 30.10 in 8.0 mi NNW 6.9 mph - N/A Snow Light Snow
10:17 PM 32.0 °F 27.5 °F 32.0 °F 100% 30.07 in 10.0 mi Variable 4.6 mph - N/A Snow Light Snow
10:19 PM 32.0 °F 27.5 °F 32.0 °F 100% 30.10 in 10.0 mi NW 4.6 mph - N/A Snow Light Snow
10:22 PM 32.0 °F 26.4 °F 32.0 °F 100% 30.10 in 9.0 mi NW 5.8 mph - N/A Snow Light Snow
10:28 PM 32.0 °F 26.4 °F 32.0 °F 100% 30.10 in 8.0 mi NW 5.8 mph - N/A Snow Light Snow
10:33 PM 32.0 °F 26.4 °F 32.0 °F 100% 30.10 in 9.0 mi NW 5.8 mph - N/A Snow Light Snow
10:37 PM 32.0 °F 26.4 °F 32.0 °F 100% 30.07 in 9.0 mi NW 5.8 mph - N/A Snow Light Snow
10:38 PM 32.0 °F 26.4 °F 32.0 °F 100% 30.07 in 9.0 mi NW 5.8 mph - N/A Snow Light Snow
10:39 PM 32.0 °F 26.4 °F 32.0 °F 100% 30.10 in 9.0 mi NW 5.8 mph - N/A Snow Light Snow
10:40 PM 32.0 °F 26.4 °F 32.0 °F 100% 30.10 in 9.0 mi NW 5.8 mph - N/A Snow Light Snow
10:53 PM 32.0 °F 27.5 °F 32.0 °F 100% 30.10 in 7.0 mi NW 4.6 mph - N/A Snow Light Snow
10:54 PM 32.0 °F 27.5 °F 32.0 °F 100% 30.10 in 7.0 mi NW 4.6 mph - N/A Snow Light Snow
10:55 PM 32.2 °F 27.7 °F 32.2 °F 100% 30.10 in 8.0 mi NW 4.6 mph - 0.00 in Snow Light Snow
10:59 PM 32.0 °F 26.4 °F 32.0 °F 100% 30.09 in 9.0 mi NW 5.8 mph - N/A Snow Light Snow
11:04 PM 32.0 °F 27.5 °F 32.0 °F 100% 30.07 in 10.0 mi NW 4.6 mph - N/A Snow Light Snow
11:11 PM 32.0 °F 27.5 °F 32.0 °F 100% 30.09 in 7.0 mi NW 4.6 mph - N/A Snow Light Snow
11:19 PM 32.0 °F 26.4 °F 32.0 °F 100% 30.09 in 7.0 mi NNW 5.8 mph - N/A Snow Light Snow
11:23 PM 32.0 °F 26.4 °F 32.0 °F 100% 30.09 in 9.0 mi NNW 5.8 mph - N/A Snow Light Snow
11:30 PM 32.0 °F 26.4 °F 32.0 °F 100% 30.09 in 10.0 mi NW 5.8 mph - N/A   Overcast
11:32 PM 32.0 °F 27.5 °F 32.0 °F 100% 30.09 in 10.0 mi NW 4.6 mph - N/A   Overcast
11:33 PM 32.0 °F 27.5 °F 32.0 °F 100% 30.07 in 6.0 mi NW 4.6 mph - N/A Snow Light Snow
11:36 PM 32.0 °F 27.5 °F 32.0 °F 100% 30.10 in 10.0 mi NW 4.6 mph - N/A   Light Drizzle
11:39 PM 32.0 °F 26.4 °F 32.0 °F 100% 30.07 in 6.0 mi NW 5.8 mph - N/A Snow Light Snow
11:45 PM 32.0 °F 25.6 °F 32.0 °F 100% 30.10 in 10.0 mi WNW 6.9 mph - N/A   Overcast
11:51 PM 32.0 °F 25.6 °F 32.0 °F 100% 30.10 in 10.0 mi NW 6.9 mph - N/A   Overcast
11:54 PM 32.0 °F 26.4 °F 32.0 °F 100% 30.10 in 10.0 mi NW 5.8 mph - N/A   Overcast
11:55 PM 31.6 °F 25.1 °F 31.6 °F 100% 30.10 in 10.0 mi NW 6.9 mph - 0.00 in   Overcast
11:58 PM 32.0 °F 25.6 °F 32.0 °F 100% 30.10 in 10.0 mi NW 6.9 mph - N/A   Overcast
11:59 PM 32.0 °F 24.8 °F 32.0 °F 100% 30.07 in 6.0 mi NW 8.1 mph - N/A Snow Light Snow